Location: Gu�tanj
(46.5431°N, 14.9692°E)
Time: 08:59:13
(UTC+00:00)

Cosmos 2218 Rocket - Visible Passes

Search period start: 25 September 2022 00:00
Search period end: 05 October 2022 00:00
Orbit: 955 x 1007 km, 82.9° (Epoch: 24 September)

Date Brightness Start Highest point End Pass type
(mag) Time Alt. Az. Time Alt. Az. Time Alt. Az.
25 Sep 4.5 01:49:09 46° NNW 01:49:09 46° NNW 01:53:45 10° N visible
26 Sep 5.4 00:31:31 32° NE 00:31:31 32° NE 00:35:08 10° NNE visible
26 Sep 5.0 02:16:19 29° NW 02:16:19 29° NW 02:20:27 10° N visible
26 Sep 6.6 23:13:52 11° NE 23:13:52 11° NE 23:14:16 10° NE visible
27 Sep 5.1 00:58:40 39° NNE 00:58:40 39° NNE 01:02:24 10° N visible
27 Sep 5.5 02:43:28 18° NW 02:43:28 18° NW 02:46:42 10° NNW visible
27 Sep 6.2 23:41:00 17° NE 23:41:00 17° NE 23:42:59 10° NNE visible
28 Sep 5.1 01:25:48 35° NNW 01:25:48 35° NNW 01:29:23 10° N visible
28 Sep 6.0 03:10:36 10° NW 03:10:36 10° NW 03:11:11 10° NW visible
29 Sep 5.9 00:08:08 24° NE 00:08:08 24° NE 00:10:41 10° NNE visible
29 Sep 5.4 01:52:55 26° NNW 01:52:55 26° NNW 01:56:07 10° N visible
30 Sep 5.6 00:35:14 28° NNE 00:35:14 28° NNE 00:37:59 10° NNE visible
30 Sep 5.7 02:20:00 17° NW 02:20:00 17° NW 02:22:26 10° NNW visible
30 Sep 6.5 23:17:31 13° NE 23:17:31 13° NE 23:18:29 10° NE visible
01 Oct 5.6 01:02:18 27° N 01:02:18 27° N 01:05:01 10° N visible
01 Oct 6.1 02:47:06 10° NW 02:47:06 10° NW 02:47:28 10° NW visible
01 Oct 6.2 23:44:35 18° NNE 23:44:35 18° NNE 23:46:15 10° NNE visible
02 Oct 5.7 01:29:23 22° NNW 01:29:23 22° NNW 01:31:46 10° N visible
03 Oct 6.0 00:11:39 21° NNE 00:11:39 21° NNE 00:13:35 10° NNE visible
03 Oct 5.9 01:56:26 16° NNW 01:56:26 16° NNW 01:58:09 10° NNW visible
03 Oct 6.7 22:53:54 10° NE 22:53:54 10° NE 22:53:59 10° NE visible
04 Oct 6.0 00:38:42 21° N 00:38:42 21° N 00:40:38 10° N visible
04 Oct 6.2 02:23:29 10° NW 02:23:29 10° NW 02:23:31 10° NW visible
04 Oct 6.5 23:20:56 14° NNE 23:20:56 14° NNE 23:21:48 10° NNE visible
